This is the latest recevied weather packets stored in our database for station/object DM2KB-13. If no packets are shown the sender has not sent any weather packets the latest 10 day(s).
| Time | Temp. | Humidity | Pressure | Rain* | Wind** | Luminosity | Snow |
|---|---|---|---|---|---|---|---|
| 1777737072 | 21.11° C | 72% | 1014.6 hPa | 0 mm | - | 207 W/m² | - |
| 1777736771 | 21.11° C | 74% | 1014.7 hPa | 0 mm | - | 366 W/m² | - |
| 1777736471 | 21.11° C | 75% | 1014.7 hPa | 0 mm | - | 246 W/m² | - |
| 1777736171 | 21.11° C | 75% | 1014.7 hPa | 0 mm | - | 158 W/m² | - |
| 1777735870 | 21.11° C | 74% | 1014.8 hPa | 0 mm | - | 111 W/m² | - |
| 1777735570 | 21.11° C | 73% | 1014.8 hPa | 0 mm | - | 69 W/m² | - |
| 1777735270 | 21.11° C | 72% | 1014.8 hPa | 0 mm | - | 47 W/m² | - |
| 1777734969 | 21.67° C | 70% | 1014.8 hPa | 0 mm | - | 54 W/m² | - |
| 1777734669 | 21.67° C | 70% | 1015 hPa | 0 mm | - | 67 W/m² | - |
| 1777734369 | 21.67° C | 69% | 1015.1 hPa | 0 mm | - | 47 W/m² | - |
| 1777734069 | 22.22° C | 67% | 1015.2 hPa | 0 mm | - | 26 W/m² | - |
| 1777733768 | 22.22° C | 67% | 1015.3 hPa | 0 mm | - | 30 W/m² | - |
| 1777733468 | 22.78° C | 64% | 1015.4 hPa | 0 mm | - | 49 W/m² | - |
| 1777733168 | 23.33° C | 62% | 1015.6 hPa | 0 mm | - | 65 W/m² | - |
| 1777732867 | 23.33° C | 60% | 1015.4 hPa | 0 mm | - | 76 W/m² | - |
| 1777732567 | 23.89° C | 56% | 1015.4 hPa | 0 mm | - | 83 W/m² | - |
| 1777732267 | 23.89° C | 56% | 1015.6 hPa | 0 mm | - | 121 W/m² | - |
| 1777731967 | 24.44° C | 53% | 1015.7 hPa | 0 mm | - | 116 W/m² | - |
| 1777731666 | 24.44° C | 53% | 1015.6 hPa | 0 mm | - | 193 W/m² | - |
| 1777731366 | 24.44° C | 52% | 1015.7 hPa | 0 mm | - | 269 W/m² | - |
| 1777731066 | 24.44° C | 52% | 1015.7 hPa | 0 mm | - | 246 W/m² | - |
| 1777730766 | 24.44° C | 51% | 1015.7 hPa | 0 mm | - | 214 W/m² | - |
| 1777730465 | 24.44° C | 50% | 1015.7 hPa | 0 mm | - | 185 W/m² | - |
| 1777730165 | 25° C | 50% | 1015.7 hPa | 0 mm | - | 206 W/m² | - |
| 1777729865 | 25° C | 49% | 1015.7 hPa | 0 mm | - | 199 W/m² | - |
* Rain latest hour (hover to see other rain measurements)
** Current wind speed in m/s (hover to see current wind gust speed)